Погода в Новых Ивайтёнках

Россия / Брянская область     52°46′49″N   33°04′15″E
темп.,
°C
ветер,
м/с
пор.,
м/с
влажн.,
%
обл.,
%
осадки,
мм/ч
давл.,
гПа
погр.,
м
6 мая, чт
чт600:00+10ю61685100 0.1 1007453
03:00+10ю61484100 0.5 1005513
06:00+9ю81887100 0.3 1005709
09:00+11ю91577100 0.3 1004915
12:00+10ююз81490100 0.9 10041164
15:00+9зюз61083100 2.2 10081036
18:00+11зюз596897 0.3 10081358
21:00+6зюз338348 0.4 101134
7 мая, пт
пт700:00+5юз348514 0.0 101251
03:00+3юз338015 0.0 101343
06:00+3ююз37805 0.0 1014112
09:00+10ююз610625 0.0 1013568
12:00+14ююз81052100 0.0 10132049
15:00+14ююз7952100 0.1 10112107
18:00+12ю71168100 0.3 10101053
21:00+11ю71573100 1.1 1008851
8 мая, сб
сб800:00+10ю61389100 2.3 1007814
03:00+9ююв41097100 5.4 1005598
06:00+9зюз41097100 2.3 1004536
09:00+11зюз7983100 2.9 1005957
12:00+9з91175100 0.3 10071164
15:00+7зсз9137635 0.5 10101249
18:00+8зсз710695 0.2 10111416
21:00+5з512765 0.2 1014455
9 мая, вс
вс900:00+3з412852 0.0 1015309
03:00+2з512925 0.0 1017308
06:00+2зсз4109617 0.0 1019322
09:00+7сз68715 0.0 1021842
12:00+10ссз685481 0.0 10221871
15:00+11ссз574688 0.0 10232245
18:00+11ссз45565 0.0 10241282
21:00+6ссз336937 0.0 102635
10 мая, пн
пн1000:00+5с22735 0.0 102818
03:00+4ссв227327 0.0 102810
06:00+4св22745 0.0 102913
09:00+10всв22590 0.0 1030386
12:00+13св23454 0.0 10291219
15:00+15св34435 0.0 10281471
18:00+15св24555 0.0 10271266
21:00+9всв33680 0.0 102834